Honolulu, HI

12:14 AM HST on February 14, 2016 (GMT -1000)
Nuuanu | | Change Station
CLOSE
Current Station
Personal Weather Station
Location: Honolulu, HI
Elevation: 374 ft
Nearby Weather Stations
Active Advisory: High Surf Advisory Active Notice: Record Report

Elev 374 ft 21.33 °N, 157.84 °W | Updated 9 minutes ago

Partly Cloudy
Partly Cloudy
72.7 °F
Feels Like 73 °F
N
0.0
Wind Variable Wind from North

Today
High -- | Low -- °F
--% Chance of Precip.
Yesterday
High -- | Low -- °F
Precip. -- in
Pressure 30.06 in
Visibility 10.0 miles
Clouds Few 3200 ft
Heat Index 73 °F
Dew Point 66 °F
Humidity 81%
Rainfall 0.00 in
Snow Depth Not available.
7:02 AM 6:28 PM
Waxing Crescent, 40% visible
METAR PHNL 140953Z 06008KT 10SM FEW032 24/18 A3006 RMK AO2 SLP179 T02440183 403060211
Pressure 30.06 in
Visibility 10.0 miles
Clouds Few 3200 ft
Heat Index 73 °F
Dew Point 66 °F
Humidity 81%
Rainfall 0.00 in
Snow Depth Not available.
7:02 AM 6:28 PM
Waxing Crescent, 40% visible
METAR PHNL 140953Z 06008KT 10SM FEW032 24/18 A3006 RMK AO2 SLP179 T02440183 403060211

10-Day Weather Forecast

Almanac

Astronomy

Feb. 14, 2016 Rise Set
Actual Time
Civil Twilight
Nautical Twilight
Astronomical Twilight
Moon
Length of Visible Light
Length of Day
Tomorrow will be .
, % of the Moon is Illuminated

Today's Extremes

State Highs State Lows

Community

WunderPhotos

Upload Photos

1,892,765 photos uploaded!

WunderBlog® & News

Nearby

Air Quality

  Air Quality AQ Index Pollutant
Not available.

Snow Depth

Station Depth Elevation

Earthquake Activity

City Distance Mag. Time & Date
Minimum magnitude displayed is 2.5.

Coastal Water Temperatures

Place Temperature

Stations

Nearby Weather Stations

Station Location Temp. Windchill Dew Point Humidity Wind Precip. Elev Updated Type
                   

Watches & Warnings

High Surf Advisory
Issued: 3:20 PM HST Feb. 13, 2016 – National Weather Service

... High surf advisory in effect from 6 am Sunday to 6 PM HST
Monday...

The National Weather Service in Honolulu has issued a high surf
advisory... which is in effect from 6 am Sunday to 6 PM HST
Monday.

* Surf... north and west facing shores of Kauai... 14 to 18 feet. North
facing shores of Oahu Molokai and Maui... 10 to 14 feet Sunday
morning building to 14 to 18 feet Sunday afternoon. West facing
shores of Oahu and Molokai... 5 to 8 feet Sunday morning building
to 8 to 12 feet Sunday afternoon.

* Timing... Sunday morning through Monday for Kauai and Niihau.
Sunday afternoon through Monday for Oahu Molokai and Maui.

* Impacts... moderate... expect strong breaking waves... shore
break... and strong longshore and rip currents making swimming
difficult and dangerous.

Precautionary/preparedness actions...
beachgoers... swimmers... and surfers should heed all advice given
by ocean safety officials and exercise caution.



Foster